Terminal Aerodrome Forecast
Issued by NWS Pocatello, ID

Home | Current Version | Previous Version | Text Only | Print | Product List | Glossary On
Versions: 1 2 3 4 5 6 7 8 9 10 11 12 13 14 15 16
000
FTUS45 KPIH 202000 AAA
TAFBYI
TAF AMD
KBYI 202054Z 2021/2118 20015KT P6SM FEW100
     FM210200 16008KT P6SM VCSH SCT080 BKN110
     FM210500 16010KT P6SM -SHRA BKN090
     FM211000 25015G25KT P6SM VCSH BKN070 BKN090=

USA.gov is the U.S. government's official web portal to all federal, state and local government web resources and services.